Time,TemperatureF,DewpointF,PressureIn,WindDirection,WindDirectionDegrees,WindSpeedMPH,WindSpeedGustMPH,Humidity,HourlyPrecipIn,Conditions,Clouds,dailyrainin,SolarRadiationWatts/m^2,SoftwareType,DateUTC
2013-03-23 00:03:00,49.6,45.0,29.85,East,90,2.3,2.3,84,0.00,CLR,,0.00,0.0,WeatherDisplay:10.37,2013-03-23 05:03:00,
2013-03-23 00:08:00,49.6,45.0,29.83,East,90,2.3,2.3,84,0.00,CLR,,0.00,0.0,WeatherDisplay:10.37,2013-03-23 05:08:00,
2013-03-23 00:14:00,49.5,44.5,29.83,NE,45,3.5,3.5,83,0.00,CLR,,0.00,0.0,WeatherDisplay:10.37,2013-03-23 05:14:00,
2013-03-23 00:19:00,49.5,44.5,29.83,North,0,2.3,2.3,83,0.00,CLR,,0.00,0.0,WeatherDisplay:10.37,2013-03-23 05:19:00,
2013-03-23 00:24:00,49.5,44.5,29.83,NNE,22,3.5,3.5,83,0.00,CLR,,0.00,0.0,WeatherDisplay:10.37,2013-03-23 05:24:00,
2013-03-23 00:29:00,49.6,45.0,29.85,North,0,2.3,2.3,84,0.00,CLR,,0.00,0.0,WeatherDisplay:10.37,2013-03-23 05:29:00,
2013-03-23 00:34:00,49.5,44.5,29.85,NW,315,3.5,3.5,83,0.00,CLR,,0.00,0.0,WeatherDisplay:10.37,2013-03-23 05:34:00,
2013-03-23 00:39:00,49.6,45.0,29.85,ENE,68,2.3,2.3,84,0.00,CLR,,0.00,0.0,WeatherDisplay:10.37,2013-03-23 05:39:00,
2013-03-23 00:44:00,49.8,45.2,29.85,NNE,22,2.5,2.5,84,0.00,CLR,,0.00,0.0,WeatherDisplay:10.37,2013-03-23 05:44:00,
2013-03-23 00:49:00,49.8,45.2,29.85,SE,135,4.6,4.6,84,0.00,CLR,,0.00,0.0,WeatherDisplay:10.37,2013-03-23 05:49:00,
2013-03-23 00:55:00,49.6,45.0,29.85,NNW,338,2.3,2.3,84,0.00,CLR,,0.00,0.0,WeatherDisplay:10.37,2013-03-23 05:55:00,
2013-03-23 01:00:00,49.8,45.2,29.85,ENE,68,3.5,3.5,84,0.00,CLR,,0.00,0.0,WeatherDisplay:10.37,2013-03-23 06:00:00,
2013-03-23 01:05:00,49.6,45.0,29.85,NNW,338,2.3,2.3,84,0.00,CLR,,0.00,0.0,WeatherDisplay:10.37,2013-03-23 06:05:00,
2013-03-23 01:10:00,49.5,44.8,29.82,NW,315,0.0,1.7,84,0.00,CLR,,0.00,0.0,WeatherDisplay:10.37,2013-03-23 06:10:00,
2013-03-23 01:15:00,49.6,45.0,29.82,NW,315,2.3,2.3,84,0.00,CLR,,0.00,0.0,WeatherDisplay:10.37,2013-03-23 06:15:00,
2013-03-23 01:21:00,49.6,45.0,29.82,North,0,3.5,3.5,84,0.00,CLR,,0.00,0.0,WeatherDisplay:10.37,2013-03-23 06:21:00,
2013-03-23 01:26:00,49.5,44.5,29.82,North,0,2.3,2.3,83,0.00,CLR,,0.00,0.0,WeatherDisplay:10.37,2013-03-23 06:26:00,
2013-03-23 01:31:00,49.5,44.8,29.82,NNW,338,2.3,2.3,84,0.00,CLR,,0.00,0.0,WeatherDisplay:10.37,2013-03-23 06:31:00,
2013-03-23 01:37:00,49.5,44.8,29.82,NNW,338,3.5,3.5,84,0.00,CLR,,0.00,0.0,WeatherDisplay:10.37,2013-03-23 06:37:00,
2013-03-23 01:42:00,49.5,44.8,29.82,West,270,2.3,2.3,84,0.00,CLR,,0.00,0.0,WeatherDisplay:10.37,2013-03-23 06:42:00,
2013-03-23 01:47:00,49.5,44.8,29.82,NNW,338,2.3,2.3,84,0.00,CLR,,0.00,0.0,WeatherDisplay:10.37,2013-03-23 06:47:00,
2013-03-23 01:52:00,49.5,44.8,29.83,North,0,2.3,2.3,84,0.00,CLR,,0.00,0.0,WeatherDisplay:10.37,2013-03-23 06:52:00,
2013-03-23 01:57:00,49.5,44.8,29.83,NNE,22,3.5,3.5,84,0.00,CLR,,0.00,0.0,WeatherDisplay:10.37,2013-03-23 06:57:00,
2013-03-23 02:02:00,49.5,44.8,29.83,NE,45,3.5,3.5,84,0.00,CLR,,0.00,0.0,WeatherDisplay:10.37,2013-03-23 07:02:00,
2013-03-23 02:08:00,49.5,44.8,29.83,NNW,338,2.3,2.3,84,0.00,CLR,,0.00,0.0,WeatherDisplay:10.37,2013-03-23 07:08:00,
2013-03-23 02:13:00,49.5,44.8,29.81,NNW,338,3.8,3.8,84,0.00,CLR,,0.00,0.0,WeatherDisplay:10.37,2013-03-23 07:13:00,
2013-03-23 02:18:00,49.5,44.8,29.81,NNW,338,0.0,1.0,84,0.00,CLR,,0.00,0.0,WeatherDisplay:10.37,2013-03-23 07:18:00,
2013-03-23 02:23:00,49.6,45.0,29.81,North,0,3.5,3.5,84,0.00,CLR,,0.00,0.0,WeatherDisplay:10.37,2013-03-23 07:23:00,
2013-03-23 02:28:00,49.5,44.8,29.82,NW,315,2.8,2.8,84,0.00,CLR,,0.00,0.0,WeatherDisplay:10.37,2013-03-23 07:28:00,
2013-03-23 02:34:00,49.6,45.0,29.82,ENE,68,2.3,2.3,84,0.00,CLR,,0.00,0.0,WeatherDisplay:10.37,2013-03-23 07:34:00,
2013-03-23 02:39:00,49.8,45.2,29.82,ESE,112,1.2,1.2,84,0.00,CLR,,0.00,0.0,WeatherDisplay:10.37,2013-03-23 07:39:00,
2013-03-23 02:44:00,49.8,45.2,29.82,North,0,0.0,1.2,84,0.00,CLR,,0.00,0.0,WeatherDisplay:10.37,2013-03-23 07:44:00,
2013-03-23 02:49:00,49.6,45.0,29.83,NNW,338,2.4,2.4,84,0.00,CLR,,0.00,0.0,WeatherDisplay:10.37,2013-03-23 07:49:00,
2013-03-23 02:54:00,49.8,45.2,29.83,West,270,2.6,2.6,84,0.00,CLR,,0.00,0.0,WeatherDisplay:10.37,2013-03-23 07:54:00,
2013-03-23 02:59:00,49.5,44.8,29.83,North,0,4.6,4.6,84,0.00,CLR,,0.00,0.0,WeatherDisplay:10.37,2013-03-23 07:59:00,
2013-03-23 03:04:00,49.6,45.0,29.83,NW,315,2.6,2.6,84,0.00,CLR,,0.00,0.0,WeatherDisplay:10.37,2013-03-23 08:04:00,
2013-03-23 03:10:00,49.6,45.0,29.83,NW,315,2.3,2.3,84,0.00,CLR,,0.00,0.0,WeatherDisplay:10.37,2013-03-23 08:10:00,
2013-03-23 03:15:00,49.5,44.8,29.83,WNW,292,2.3,2.3,84,0.00,CLR,,0.00,0.0,WeatherDisplay:10.37,2013-03-23 08:15:00,
2013-03-23 03:20:00,49.5,44.8,29.83,North,0,2.3,2.3,84,0.00,CLR,,0.00,0.0,WeatherDisplay:10.37,2013-03-23 08:20:00,
2013-03-23 03:25:00,49.5,44.8,29.83,NNW,338,2.3,2.3,84,0.00,CLR,,0.00,0.0,WeatherDisplay:10.37,2013-03-23 08:25:00,
2013-03-23 03:30:00,49.5,44.8,29.83,NW,315,2.3,2.3,84,0.00,CLR,,0.00,0.0,WeatherDisplay:10.37,2013-03-23 08:30:00,
2013-03-23 03:36:00,49.5,44.8,29.83,ESE,112,2.4,2.4,84,0.00,CLR,,0.00,0.0,WeatherDisplay:10.37,2013-03-23 08:36:00,
2013-03-23 03:41:00,49.5,44.8,29.83,NNW,338,2.3,2.3,84,0.00,CLR,,0.00,0.0,WeatherDisplay:10.37,2013-03-23 08:41:00,
2013-03-23 03:47:00,49.5,44.8,29.83,NW,315,1.2,1.2,84,0.00,CLR,,0.00,0.0,WeatherDisplay:10.37,2013-03-23 08:47:00,
2013-03-23 03:52:00,49.5,44.8,29.81,NNW,338,2.6,2.6,84,0.00,CLR,,0.00,0.0,WeatherDisplay:10.37,2013-03-23 08:52:00,
2013-03-23 03:57:00,49.3,44.6,29.81,North,0,8.1,8.1,84,0.00,CLR,,0.00,0.0,WeatherDisplay:10.37,2013-03-23 08:57:00,
2013-03-23 04:02:00,49.3,44.6,29.81,NNW,338,4.6,4.6,84,0.00,CLR,,0.00,0.0,WeatherDisplay:10.37,2013-03-23 09:02:00,
2013-03-23 04:07:00,49.5,44.8,29.81,WSW,248,3.5,3.5,84,0.00,CLR,,0.00,0.0,WeatherDisplay:10.37,2013-03-23 09:07:00,
2013-03-23 04:12:00,49.5,44.8,29.80,ENE,68,2.3,2.3,84,0.00,CLR,,0.00,0.0,WeatherDisplay:10.37,2013-03-23 09:12:00,
2013-03-23 04:18:00,49.3,44.6,29.80,NE,45,3.6,3.6,84,0.00,CLR,,0.00,0.0,WeatherDisplay:10.37,2013-03-23 09:18:00,
2013-03-23 04:23:00,49.5,44.8,29.80,East,90,1.2,1.5,84,0.00,CLR,,0.00,0.0,WeatherDisplay:10.37,2013-03-23 09:23:00,
2013-03-23 04:28:00,49.5,44.8,29.80,East,90,0.0,1.5,84,0.00,CLR,,0.00,0.0,WeatherDisplay:10.37,2013-03-23 09:28:00,
2013-03-23 04:33:00,49.5,44.8,29.81,North,0,2.3,2.3,84,0.00,CLR,,0.00,0.0,WeatherDisplay:10.37,2013-03-23 09:33:00,
2013-03-23 04:38:00,49.3,44.6,29.81,NNW,338,3.5,3.5,84,0.00,CLR,,0.00,0.0,WeatherDisplay:10.37,2013-03-23 09:38:00,
2013-03-23 04:43:00,49.3,45.0,29.81,NNW,338,2.3,2.3,85,0.00,CLR,,0.00,0.0,WeatherDisplay:10.37,2013-03-23 09:43:00,
2013-03-23 04:48:00,49.3,45.0,29.82,ENE,68,1.2,1.3,85,0.00,CLR,,0.00,0.0,WeatherDisplay:10.37,2013-03-23 09:48:00,
2013-03-23 04:53:00,49.3,45.0,29.82,NNW,338,4.6,4.6,85,0.00,CLR,,0.00,0.0,WeatherDisplay:10.37,2013-03-23 09:53:00,
2013-03-23 04:59:00,49.3,45.0,29.82,NE,45,1.2,1.2,85,0.00,CLR,,0.00,0.0,WeatherDisplay:10.37,2013-03-23 09:59:00,
2013-03-23 05:04:00,49.3,45.0,29.82,NNW,338,4.7,4.7,85,0.00,CLR,,0.00,0.0,WeatherDisplay:10.37,2013-03-23 10:04:00,
2013-03-23 05:09:00,49.1,44.8,29.81,NNW,338,4.6,4.6,85,0.00,CLR,,0.00,0.0,WeatherDisplay:10.37,2013-03-23 10:09:00,
2013-03-23 05:14:00,49.1,44.8,29.81,NNW,338,2.3,2.3,85,0.00,CLR,,0.00,0.0,WeatherDisplay:10.37,2013-03-23 10:14:00,
2013-03-23 05:19:00,48.9,44.6,29.81,NNE,22,4.6,4.6,85,0.00,CLR,,0.00,0.0,WeatherDisplay:10.37,2013-03-23 10:19:00,
2013-03-23 05:25:00,48.9,44.6,29.81,NW,315,3.5,3.5,85,0.00,CLR,,0.00,0.0,WeatherDisplay:10.37,2013-03-23 10:25:00,
2013-03-23 05:30:00,48.9,44.6,29.83,NW,315,3.5,3.5,85,0.00,CLR,,0.00,0.0,WeatherDisplay:10.37,2013-03-23 10:30:00,
2013-03-23 05:35:00,48.7,44.7,29.83,NW,315,3.5,3.5,86,0.00,CLR,,0.00,0.0,WeatherDisplay:10.37,2013-03-23 10:35:00,
2013-03-23 05:40:00,48.7,44.7,29.83,NNW,338,3.5,3.5,86,0.00,CLR,,0.00,0.0,WeatherDisplay:10.37,2013-03-23 10:40:00,
2013-03-23 05:45:00,48.7,44.7,29.83,NW,315,2.6,2.6,86,0.00,CLR,,0.00,0.0,WeatherDisplay:10.37,2013-03-23 10:45:00,
2013-03-23 05:50:00,48.6,44.6,29.82,NNW,338,4.6,4.6,86,0.00,CLR,,0.00,0.0,WeatherDisplay:10.37,2013-03-23 10:50:00,
2013-03-23 05:56:00,48.6,44.6,29.82,NW,315,4.6,4.6,86,0.00,CLR,,0.00,0.0,WeatherDisplay:10.37,2013-03-23 10:56:00,
2013-03-23 06:01:00,48.6,44.6,29.82,NW,315,2.3,2.3,86,0.00,CLR,,0.00,0.0,WeatherDisplay:10.37,2013-03-23 11:01:00,
2013-03-23 06:06:00,48.6,44.6,29.82,NW,315,2.3,2.3,86,0.00,CLR,,0.00,0.0,WeatherDisplay:10.37,2013-03-23 11:06:00,
2013-03-23 06:11:00,48.6,44.6,29.81,NW,315,2.3,2.3,86,0.00,CLR,,0.00,0.0,WeatherDisplay:10.37,2013-03-23 11:11:00,
2013-03-23 06:17:00,48.7,44.7,29.81,ENE,68,3.5,3.5,86,0.00,CLR,,0.00,0.0,WeatherDisplay:10.37,2013-03-23 11:17:00,
2013-03-23 06:22:00,49.1,45.1,29.81,ENE,68,1.2,1.2,86,0.00,CLR,,0.00,0.0,WeatherDisplay:10.37,2013-03-23 11:22:00,
2013-03-23 06:27:00,49.1,45.1,29.81,ENE,68,2.8,2.8,86,0.00,CLR,,0.00,0.0,WeatherDisplay:10.37,2013-03-23 11:27:00,
2013-03-23 06:32:00,49.1,45.1,29.78,East,90,4.3,4.3,86,0.00,CLR,,0.00,0.0,WeatherDisplay:10.37,2013-03-23 11:32:00,
2013-03-23 06:37:00,49.1,45.1,29.78,WSW,248,2.3,2.3,86,0.00,CLR,,0.00,0.0,WeatherDisplay:10.37,2013-03-23 11:37:00,
2013-03-23 06:43:00,49.1,45.1,29.78,NW,315,1.2,1.2,86,0.00,CLR,,0.00,0.0,WeatherDisplay:10.37,2013-03-23 11:43:00,
2013-03-23 06:48:00,48.9,44.9,29.78,ENE,68,2.3,2.3,86,0.00,CLR,,0.00,0.0,WeatherDisplay:10.37,2013-03-23 11:48:00,
2013-03-23 06:53:00,49.1,45.1,29.81,ENE,68,0.0,0.5,86,0.00,CLR,,0.00,0.0,WeatherDisplay:10.37,2013-03-23 11:53:00,
2013-03-23 06:58:00,49.3,45.3,29.81,East,90,4.3,4.3,86,0.00,CLR,,0.00,0.0,WeatherDisplay:10.37,2013-03-23 11:58:00,
2013-03-23 07:03:00,49.3,45.3,29.81,East,90,6.9,6.9,86,0.00,OVC,,0.00,0.0,WeatherDisplay:10.37,2013-03-23 12:03:00,
2013-03-23 07:08:00,49.1,44.8,29.77,East,90,5.8,5.8,85,0.00,OVC,,0.00,0.0,WeatherDisplay:10.37,2013-03-23 12:08:00,
2013-03-23 07:14:00,48.9,44.9,29.77,NE,45,3.8,3.8,86,0.00,OVC,,0.00,0.0,WeatherDisplay:10.37,2013-03-23 12:14:00,
2013-03-23 07:19:00,49.1,45.1,29.77,ESE,112,3.5,3.5,86,0.00,OVC,,0.00,0.0,WeatherDisplay:10.37,2013-03-23 12:19:00,
2013-03-23 07:24:00,49.1,45.1,29.77,NNE,22,1.2,2.0,86,0.00,OVC,,0.00,0.0,WeatherDisplay:10.37,2013-03-23 12:24:00,
2013-03-23 07:29:00,49.1,45.1,29.76,ENE,68,3.5,3.5,86,0.00,OVC,,0.00,0.0,WeatherDisplay:10.37,2013-03-23 12:29:00,
2013-03-23 07:34:00,49.1,45.1,29.76,SW,225,2.3,2.3,86,0.00,OVC,,0.00,0.0,WeatherDisplay:10.37,2013-03-23 12:34:00,
2013-03-23 07:40:00,49.1,45.4,29.76,WSW,248,1.2,1.5,87,0.00,OVC,,0.00,0.0,WeatherDisplay:10.37,2013-03-23 12:40:00,
2013-03-23 07:45:00,49.1,45.4,29.76,WSW,248,8.1,8.1,87,0.00,OVC,,0.00,0.0,WeatherDisplay:10.37,2013-03-23 12:45:00,
2013-03-23 07:50:00,48.7,45.3,29.92,West,270,7.5,7.5,88,0.00,OVC,,0.00,0.0,WeatherDisplay:10.37,2013-03-23 12:50:00,
2013-03-23 07:55:00,48.6,45.2,29.92,WSW,248,7.2,7.2,88,0.07,RA,,0.07,0.0,WeatherDisplay:10.37,2013-03-23 12:55:00,
2013-03-23 08:00:00,48.6,45.2,29.92,WSW,248,2.3,2.8,88,0.07,RA,,0.07,0.0,WeatherDisplay:10.37,2013-03-23 13:00:00,
2013-03-23 08:05:00,48.6,45.2,29.92,SE,135,2.3,2.3,88,0.10,RA,,0.10,0.0,WeatherDisplay:10.37,2013-03-23 13:05:00,
2013-03-23 08:10:00,48.6,45.2,29.84,SE,135,2.3,2.3,88,0.10,RA,,0.10,0.0,WeatherDisplay:10.37,2013-03-23 13:10:00,
2013-03-23 08:16:00,48.6,45.2,29.84,ESE,112,2.3,2.3,88,0.10,OVC,,0.10,0.0,WeatherDisplay:10.37,2013-03-23 13:16:00,
2013-03-23 08:21:00,48.6,45.2,29.84,ESE,112,6.9,6.9,88,0.13,RA,,0.13,0.0,WeatherDisplay:10.37,2013-03-23 13:21:00,
2013-03-23 08:26:00,48.6,45.2,29.84,ESE,112,1.5,2.0,88,0.13,RA,,0.13,0.0,WeatherDisplay:10.37,2013-03-23 13:26:00,
2013-03-23 08:32:00,48.6,45.2,29.80,South,180,3.5,3.5,88,0.13,OVC,,0.13,0.0,WeatherDisplay:10.37,2013-03-23 13:32:00,
2013-03-23 08:37:00,48.6,45.2,29.80,SE,135,5.8,5.8,88,0.13,OVC,,0.13,0.0,WeatherDisplay:10.37,2013-03-23 13:37:00,
2013-03-23 08:42:00,48.6,45.2,29.80,ESE,112,6.9,6.9,88,0.13,OVC,,0.13,0.0,WeatherDisplay:10.37,2013-03-23 13:42:00,
2013-03-23 08:47:00,48.6,45.5,29.80,East,90,4.6,4.6,89,0.13,OVC,,0.13,0.0,WeatherDisplay:10.37,2013-03-23 13:47:00,
2013-03-23 08:53:00,48.6,45.2,29.80,North,0,5.8,5.8,88,0.09,OVC,,0.13,0.0,WeatherDisplay:10.37,2013-03-23 13:53:00,
2013-03-23 08:58:00,48.4,45.0,29.80,SE,135,4.6,4.9,88,0.06,OVC,,0.13,0.0,WeatherDisplay:10.37,2013-03-23 13:58:00,
2013-03-23 09:03:00,48.6,45.5,29.80,SE,135,5.9,5.9,89,0.03,OVC,,0.13,0.0,WeatherDisplay:10.37,2013-03-23 14:03:00,
2013-03-23 09:08:00,48.4,45.3,29.80,ESE,112,4.6,4.9,89,0.03,OVC,,0.13,0.0,WeatherDisplay:10.37,2013-03-23 14:08:00,
2013-03-23 09:13:00,48.6,45.5,29.78,SE,135,10.4,10.4,89,0.06,RA,,0.16,0.0,WeatherDisplay:10.37,2013-03-23 14:13:00,
2013-03-23 09:19:00,48.7,45.6,29.78,ESE,112,13.8,13.8,89,0.03,RA,,0.16,0.0,WeatherDisplay:10.37,2013-03-23 14:19:00,
2013-03-23 09:24:00,48.6,45.5,29.78,SSE,158,4.6,8.4,89,0.03,OVC,,0.16,30.0,WeatherDisplay:10.37,2013-03-23 14:24:00,
2013-03-23 09:29:00,48.6,45.5,29.75,ESE,112,8.3,8.3,89,0.03,OVC,,0.16,100.0,WeatherDisplay:10.37,2013-03-23 14:29:00,
2013-03-23 09:34:00,48.9,45.8,29.75,SE,135,8.1,8.1,89,0.03,OVC,,0.16,210.0,WeatherDisplay:10.37,2013-03-23 14:34:00,
2013-03-23 09:39:00,48.9,45.8,29.75,SE,135,10.4,10.4,89,0.03,OVC,,0.16,280.0,WeatherDisplay:10.37,2013-03-23 14:39:00,
2013-03-23 09:44:00,49.1,46.0,29.75,East,90,10.1,10.1,89,0.03,OVC,,0.16,520.0,WeatherDisplay:10.37,2013-03-23 14:44:00,
2013-03-23 09:49:00,49.5,46.4,29.77,SSE,158,9.2,9.2,89,0.03,OVC,,0.16,520.0,WeatherDisplay:10.37,2013-03-23 14:49:00,
2013-03-23 09:55:00,49.8,46.7,29.77,ESE,112,9.2,9.2,89,0.03,OVC,,0.16,550.0,WeatherDisplay:10.37,2013-03-23 14:55:00,
2013-03-23 10:00:00,49.8,46.7,29.77,ESE,112,4.6,6.0,89,0.03,OVC,,0.16,550.0,WeatherDisplay:10.37,2013-03-23 15:00:00,
2013-03-23 10:05:00,50.0,46.9,29.77,WNW,292,4.6,4.6,89,0.03,OVC,,0.16,270.0,WeatherDisplay:10.37,2013-03-23 15:05:00,
2013-03-23 10:10:00,50.2,47.1,29.78,SE,135,0.0,1.3,89,0.03,OVC,,0.16,260.0,WeatherDisplay:10.37,2013-03-23 15:10:00,
2013-03-23 10:15:00,50.5,47.4,29.78,North,0,0.0,0.2,89,0.00,OVC,,0.16,300.0,WeatherDisplay:10.37,2013-03-23 15:15:00,
2013-03-23 10:21:00,50.9,47.8,29.78,NW,315,5.5,5.5,89,0.00,OVC,,0.16,330.0,WeatherDisplay:10.37,2013-03-23 15:21:00,
2013-03-23 10:26:00,50.9,47.8,29.78,WNW,292,1.2,1.3,89,0.00,OVC,,0.16,180.0,WeatherDisplay:10.37,2013-03-23 15:26:00,
2013-03-23 10:31:00,50.9,47.8,29.79,NW,315,4.6,4.6,89,0.00,OVC,,0.16,140.0,WeatherDisplay:10.37,2013-03-23 15:31:00,
2013-03-23 10:36:00,50.9,47.8,29.79,NW,315,3.5,3.5,89,0.00,OVC,,0.16,180.0,WeatherDisplay:10.37,2013-03-23 15:36:00,
2013-03-23 10:41:00,51.1,48.0,29.79,NW,315,3.5,3.5,89,0.00,OVC,,0.16,180.0,WeatherDisplay:10.37,2013-03-23 15:41:00,
2013-03-23 10:47:00,51.3,48.1,29.79,NW,315,3.5,3.5,89,0.00,OVC,,0.16,140.0,WeatherDisplay:10.37,2013-03-23 15:47:00,
2013-03-23 10:52:00,51.6,48.5,29.81,NW,315,3.5,3.5,89,0.00,OVC,,0.16,130.0,WeatherDisplay:10.37,2013-03-23 15:52:00,
2013-03-23 10:57:00,51.6,48.5,29.81,NW,315,2.6,2.6,89,0.00,OVC,,0.16,130.0,WeatherDisplay:10.37,2013-03-23 15:57:00,
2013-03-23 11:02:00,52.0,48.5,29.81,West,270,2.3,2.3,88,0.00,OVC,,0.16,160.0,WeatherDisplay:10.37,2013-03-23 16:02:00,
2013-03-23 11:07:00,52.3,48.9,29.81,NNE,22,2.3,2.3,88,0.00,OVC,,0.16,170.0,WeatherDisplay:10.37,2013-03-23 16:07:00,
2013-03-23 11:13:00,52.7,49.2,29.79,WNW,292,2.3,2.3,88,0.00,OVC,,0.16,150.0,WeatherDisplay:10.37,2013-03-23 16:13:00,
2013-03-23 11:18:00,52.5,48.8,29.79,WNW,292,2.3,2.3,87,0.00,OVC,,0.16,100.0,WeatherDisplay:10.37,2013-03-23 16:18:00,
2013-03-23 11:23:00,52.7,48.9,29.79,ENE,68,0.0,0.9,87,0.00,OVC,,0.16,90.0,WeatherDisplay:10.37,2013-03-23 16:23:00,
2013-03-23 11:28:00,53.2,49.5,29.79,NNE,22,0.0,0.1,87,0.00,OVC,,0.16,100.0,WeatherDisplay:10.37,2013-03-23 16:28:00,
2013-03-23 11:33:00,53.2,49.5,29.79,NNE,22,1.2,1.2,87,0.00,OVC,,0.16,70.0,WeatherDisplay:10.37,2013-03-23 16:33:00,
2013-03-23 11:39:00,53.4,49.3,29.79,North,0,1.3,1.3,86,0.00,OVC,,0.16,40.0,WeatherDisplay:10.37,2013-03-23 16:39:00,
2013-03-23 11:44:00,53.6,49.5,29.79,East,90,0.0,0.7,86,0.00,OVC,,0.16,40.0,WeatherDisplay:10.37,2013-03-23 16:44:00,
2013-03-23 11:49:00,53.6,49.2,29.78,WNW,292,0.0,0.3,85,0.00,OVC,,0.16,70.0,WeatherDisplay:10.37,2013-03-23 16:49:00,
2013-03-23 11:54:00,54.1,49.7,29.78,NNE,22,2.3,2.3,85,0.00,OVC,,0.16,70.0,WeatherDisplay:10.37,2013-03-23 16:54:00,
2013-03-23 11:59:00,54.3,49.9,29.78,NW,315,2.3,2.3,85,0.00,OVC,,0.16,70.0,WeatherDisplay:10.37,2013-03-23 16:59:00,
2013-03-23 12:05:00,54.3,49.9,29.78,West,270,2.3,2.3,85,0.00,OVC,,0.16,90.0,WeatherDisplay:10.37,2013-03-23 17:05:00,
2013-03-23 12:10:00,54.3,49.9,29.79,West,270,2.6,2.6,85,0.00,OVC,,0.16,90.0,WeatherDisplay:10.37,2013-03-23 17:10:00,
2013-03-23 12:15:00,54.9,50.1,29.79,SW,225,4.6,4.6,84,0.00,OVC,,0.16,30.0,WeatherDisplay:10.37,2013-03-23 17:15:00,
2013-03-23 12:20:00,54.9,50.1,29.79,WNW,292,3.5,3.5,84,0.00,OVC,,0.16,30.0,WeatherDisplay:10.37,2013-03-23 17:20:00,
2013-03-23 12:25:00,55.2,50.5,29.79,NNW,338,1.3,1.3,84,0.00,OVC,,0.16,60.0,WeatherDisplay:10.37,2013-03-23 17:25:00,
2013-03-23 12:31:00,55.2,50.1,29.78,WNW,292,2.6,2.6,83,0.00,CLR,,0.16,70.0,WeatherDisplay:10.37,2013-03-23 17:31:00,
2013-03-23 12:36:00,55.4,50.3,29.78,West,270,3.5,3.5,83,0.00,CLR,,0.16,80.0,WeatherDisplay:10.37,2013-03-23 17:36:00,
2013-03-23 12:41:00,55.6,50.5,29.78,NW,315,3.5,3.5,83,0.00,CLR,,0.16,70.0,WeatherDisplay:10.37,2013-03-23 17:41:00,
2013-03-23 12:46:00,55.6,50.2,29.78,WNW,292,2.5,2.5,82,0.00,CLR,,0.16,70.0,WeatherDisplay:10.37,2013-03-23 17:46:00,
2013-03-23 12:51:00,55.8,50.3,29.77,NW,315,3.5,3.5,82,0.00,CLR,,0.16,60.0,WeatherDisplay:10.37,2013-03-23 17:51:00,
2013-03-23 12:57:00,55.8,50.3,29.77,WNW,292,1.4,1.4,82,0.00,SCT,,0.16,50.0,WeatherDisplay:10.37,2013-03-23 17:57:00,
2013-03-23 13:02:00,55.8,50.3,29.77,West,270,4.6,4.6,82,0.00,BKN,,0.16,40.0,WeatherDisplay:10.37,2013-03-23 18:02:00,
2013-03-23 13:07:00,55.8,50.3,29.77,WNW,292,4.6,4.6,82,0.00,BKN,,0.16,40.0,WeatherDisplay:10.37,2013-03-23 18:07:00,
2013-03-23 13:12:00,55.8,50.3,29.77,NW,315,2.3,2.6,82,0.00,OVC,,0.16,40.0,WeatherDisplay:10.37,2013-03-23 18:12:00,
2013-03-23 13:17:00,55.8,50.0,29.77,NNE,22,2.3,2.3,81,0.00,OVC,,0.16,40.0,WeatherDisplay:10.37,2013-03-23 18:17:00,
2013-03-23 13:23:00,56.1,50.4,29.77,NNW,338,0.0,1.2,81,0.00,OVC,,0.16,50.0,WeatherDisplay:10.37,2013-03-23 18:23:00,
2013-03-23 13:28:00,56.3,50.5,29.77,NNE,22,0.0,0.5,81,0.00,OVC,,0.16,50.0,WeatherDisplay:10.37,2013-03-23 18:28:00,
2013-03-23 13:33:00,56.3,50.5,29.76,NW,315,2.3,2.3,81,0.00,OVC,,0.16,50.0,WeatherDisplay:10.37,2013-03-23 18:33:00,
2013-03-23 13:38:00,56.3,50.5,29.76,NNW,338,4.6,4.6,81,0.00,OVC,,0.16,40.0,WeatherDisplay:10.37,2013-03-23 18:38:00,
2013-03-23 13:44:00,56.3,50.2,29.76,NNW,338,2.3,2.3,80,0.00,OVC,,0.16,50.0,WeatherDisplay:10.37,2013-03-23 18:44:00,
2013-03-23 13:49:00,56.3,50.2,29.74,NW,315,4.6,4.6,80,0.00,OVC,,0.16,40.0,WeatherDisplay:10.37,2013-03-23 18:49:00,
2013-03-23 13:54:00,56.5,50.4,29.74,NNW,338,3.5,3.5,80,0.00,OVC,,0.16,50.0,WeatherDisplay:10.37,2013-03-23 18:54:00,
2013-03-23 13:59:00,56.5,50.4,29.74,NW,315,2.3,2.3,80,0.00,OVC,,0.16,50.0,WeatherDisplay:10.37,2013-03-23 18:59:00,
2013-03-23 14:04:00,56.5,50.4,29.74,WNW,292,2.3,2.3,80,0.00,OVC,,0.16,60.0,WeatherDisplay:10.37,2013-03-23 19:04:00,
2013-03-23 14:09:00,56.7,50.6,29.74,WSW,248,4.6,4.6,80,0.00,OVC,,0.16,60.0,WeatherDisplay:10.37,2013-03-23 19:09:00,
2013-03-23 14:14:00,56.7,50.2,29.74,NW,315,2.3,2.3,79,0.00,OVC,,0.16,60.0,WeatherDisplay:10.37,2013-03-23 19:14:00,
2013-03-23 14:20:00,56.8,50.4,29.74,NW,315,3.5,3.5,79,0.00,OVC,,0.16,60.0,WeatherDisplay:10.37,2013-03-23 19:20:00,
2013-03-23 14:25:00,56.8,50.4,29.74,NNW,338,6.9,6.9,79,0.00,OVC,,0.16,40.0,WeatherDisplay:10.37,2013-03-23 19:25:00,
2013-03-23 14:30:00,56.5,50.0,29.73,WNW,292,6.9,6.9,79,0.00,OVC,,0.16,40.0,WeatherDisplay:10.37,2013-03-23 19:30:00,
2013-03-23 14:35:00,56.3,50.2,29.73,NNE,22,3.5,3.5,80,0.00,OVC,,0.16,30.0,WeatherDisplay:10.37,2013-03-23 19:35:00,
2013-03-23 14:40:00,55.9,49.9,29.73,NW,315,3.3,3.3,80,0.00,OVC,,0.16,10.0,WeatherDisplay:10.37,2013-03-23 19:40:00,
2013-03-23 14:45:00,55.9,49.9,29.73,NW,315,3.5,3.5,80,0.00,OVC,,0.16,20.0,WeatherDisplay:10.37,2013-03-23 19:45:00,
2013-03-23 14:51:00,55.9,50.2,29.72,North,0,3.5,3.5,81,0.00,OVC,,0.16,30.0,WeatherDisplay:10.37,2013-03-23 19:51:00,
2013-03-23 14:56:00,55.8,50.0,29.72,NW,315,4.6,4.6,81,0.00,OVC,,0.16,30.0,WeatherDisplay:10.37,2013-03-23 19:56:00,
2013-03-23 15:01:00,55.4,49.7,29.72,NW,315,3.5,3.5,81,0.00,OVC,,0.16,20.0,WeatherDisplay:10.37,2013-03-23 20:01:00,
2013-03-23 15:07:00,55.2,49.5,29.72,SSE,158,4.6,4.6,81,0.00,OVC,,0.16,20.0,WeatherDisplay:10.37,2013-03-23 20:07:00,
2013-03-23 15:12:00,55.0,49.3,29.71,NNE,22,2.3,3.0,81,0.00,OVC,,0.16,20.0,WeatherDisplay:10.37,2013-03-23 20:12:00,
2013-03-23 15:17:00,54.9,49.1,29.71,NW,315,6.1,6.1,81,0.00,OVC,,0.16,20.0,WeatherDisplay:10.37,2013-03-23 20:17:00,
2013-03-23 15:22:00,54.9,49.1,29.71,WNW,292,2.3,3.0,81,0.00,OVC,,0.16,20.0,WeatherDisplay:10.37,2013-03-23 20:22:00,
2013-03-23 15:28:00,54.7,49.0,29.71,NW,315,2.3,2.3,81,0.00,OVC,,0.16,10.0,WeatherDisplay:10.37,2013-03-23 20:28:00,
2013-03-23 15:33:00,54.5,49.1,29.72,NNW,338,3.5,3.5,82,0.00,OVC,,0.16,10.0,WeatherDisplay:10.37,2013-03-23 20:33:00,
2013-03-23 15:38:00,54.5,49.1,29.72,NW,315,3.5,3.5,82,0.00,OVC,,0.16,10.0,WeatherDisplay:10.37,2013-03-23 20:38:00,
2013-03-23 15:43:00,54.3,48.9,29.72,NW,315,3.5,3.5,82,0.00,OVC,,0.16,10.0,WeatherDisplay:10.37,2013-03-23 20:43:00,
2013-03-23 15:48:00,54.5,49.1,29.71,NW,315,2.3,2.4,82,0.00,OVC,,0.16,10.0,WeatherDisplay:10.37,2013-03-23 20:48:00,
2013-03-23 15:53:00,54.3,48.9,29.71,NNW,338,3.5,3.5,82,0.00,OVC,,0.16,20.0,WeatherDisplay:10.37,2013-03-23 20:53:00,
2013-03-23 15:59:00,54.3,48.9,29.71,WSW,248,2.6,2.6,82,0.00,OVC,,0.16,10.0,WeatherDisplay:10.37,2013-03-23 20:59:00,
2013-03-23 16:04:00,54.3,48.9,29.71,WNW,292,2.3,2.3,82,0.00,OVC,,0.16,10.0,WeatherDisplay:10.37,2013-03-23 21:04:00,
2013-03-23 16:09:00,54.5,49.1,29.72,NNW,338,3.5,3.5,82,0.00,OVC,,0.16,10.0,WeatherDisplay:10.37,2013-03-23 21:09:00,
2013-03-23 16:14:00,54.5,49.1,29.72,NNW,338,2.3,2.3,82,0.00,OVC,,0.16,10.0,WeatherDisplay:10.37,2013-03-23 21:14:00,
2013-03-23 16:19:00,54.5,49.1,29.72,NNW,338,4.6,4.6,82,0.00,OVC,,0.16,10.0,WeatherDisplay:10.37,2013-03-23 21:19:00,
2013-03-23 16:24:00,54.5,48.8,29.72,NW,315,2.3,2.3,81,0.00,OVC,,0.16,0.0,WeatherDisplay:10.37,2013-03-23 21:24:00,
2013-03-23 16:29:00,54.9,49.1,29.72,NNW,338,1.2,1.8,81,0.00,OVC,,0.16,0.0,WeatherDisplay:10.37,2013-03-23 21:29:00,
2013-03-23 16:34:00,54.9,49.5,29.72,NE,45,1.4,1.7,82,0.00,OVC,,0.16,0.0,WeatherDisplay:10.37,2013-03-23 21:34:00,
2013-03-23 16:40:00,54.9,49.5,29.72,North,0,3.7,3.7,82,0.00,OVC,,0.16,0.0,WeatherDisplay:10.37,2013-03-23 21:40:00,
2013-03-23 16:45:00,54.9,49.8,29.72,NW,315,3.5,3.5,83,0.00,OVC,,0.16,10.0,WeatherDisplay:10.37,2013-03-23 21:45:00,
2013-03-23 16:50:00,54.7,49.6,29.72,NW,315,2.3,2.3,83,0.00,OVC,,0.16,10.0,WeatherDisplay:10.37,2013-03-23 21:50:00,
2013-03-23 16:55:00,54.7,49.6,29.72,NW,315,2.3,2.3,83,0.00,OVC,,0.16,10.0,WeatherDisplay:10.37,2013-03-23 21:55:00,
2013-03-23 17:00:00,54.3,49.6,29.72,NNW,338,2.3,2.3,84,0.00,OVC,,0.16,0.0,WeatherDisplay:10.37,2013-03-23 22:00:00,
2013-03-23 17:05:00,54.3,49.6,29.72,North,0,1.2,1.2,84,0.00,OVC,,0.16,0.0,WeatherDisplay:10.37,2013-03-23 22:05:00,
2013-03-23 17:10:00,54.7,49.9,29.71,NNW,338,2.3,2.3,84,0.00,OVC,,0.16,10.0,WeatherDisplay:10.37,2013-03-23 22:10:00,
2013-03-23 17:16:00,54.5,50.1,29.71,NNW,338,2.3,2.3,85,0.00,OVC,,0.16,10.0,WeatherDisplay:10.37,2013-03-23 22:16:00,
2013-03-23 17:21:00,54.5,50.1,29.71,NNW,338,2.3,2.3,85,0.00,OVC,,0.16,10.0,WeatherDisplay:10.37,2013-03-23 22:21:00,
2013-03-23 17:27:00,54.5,50.1,29.71,NNE,22,2.3,2.3,85,0.00,OVC,,0.16,10.0,WeatherDisplay:10.37,2013-03-23 22:27:00,
2013-03-23 17:32:00,54.5,50.1,29.72,NW,315,2.3,2.3,85,0.00,OVC,,0.16,0.0,WeatherDisplay:10.37,2013-03-23 22:32:00,
2013-03-23 17:37:00,54.9,50.4,29.72,North,0,2.3,2.3,85,0.00,OVC,,0.16,10.0,WeatherDisplay:10.37,2013-03-23 22:37:00,
2013-03-23 17:42:00,54.9,50.4,29.72,NNW,338,1.2,1.2,85,0.00,OVC,,0.16,10.0,WeatherDisplay:10.37,2013-03-23 22:42:00,
2013-03-23 17:47:00,54.7,50.3,29.72,NW,315,4.6,4.6,85,0.00,OVC,,0.16,0.0,WeatherDisplay:10.37,2013-03-23 22:47:00,
2013-03-23 17:52:00,54.7,50.3,29.70,NW,315,2.3,2.3,85,0.00,OVC,,0.16,0.0,WeatherDisplay:10.37,2013-03-23 22:52:00,
2013-03-23 17:58:00,54.5,50.1,29.70,WSW,248,4.6,4.6,85,0.00,OVC,,0.16,0.0,WeatherDisplay:10.37,2013-03-23 22:58:00,
2013-03-23 18:03:00,54.3,49.9,29.70,NNW,338,2.3,2.3,85,0.00,OVC,,0.16,0.0,WeatherDisplay:10.37,2013-03-23 23:03:00,
2013-03-23 18:08:00,54.5,50.1,29.71,NNE,22,0.0,1.4,85,0.00,OVC,,0.16,0.0,WeatherDisplay:10.37,2013-03-23 23:08:00,
2013-03-23 18:13:00,54.7,50.3,29.71,NNE,22,3.5,3.5,85,0.00,OVC,,0.16,0.0,WeatherDisplay:10.37,2013-03-23 23:13:00,
2013-03-23 18:18:00,54.5,49.8,29.71,NNW,338,2.3,2.3,84,0.00,OVC,,0.16,0.0,WeatherDisplay:10.37,2013-03-23 23:18:00,
2013-03-23 18:24:00,54.5,49.8,29.71,NNE,22,4.6,4.6,84,0.00,OVC,,0.16,0.0,WeatherDisplay:10.37,2013-03-23 23:24:00,
2013-03-23 18:29:00,54.9,50.1,29.70,NNW,338,4.6,4.6,84,0.00,OVC,,0.16,0.0,WeatherDisplay:10.37,2013-03-23 23:29:00,
2013-03-23 18:34:00,54.9,50.1,29.70,NNW,338,1.2,2.4,84,0.00,OVC,,0.16,10.0,WeatherDisplay:10.37,2013-03-23 23:34:00,
2013-03-23 18:39:00,55.0,50.0,29.70,NNE,22,4.6,4.6,83,0.00,OVC,,0.16,10.0,WeatherDisplay:10.37,2013-03-23 23:39:00,
2013-03-23 18:44:00,55.0,50.0,29.70,East,90,2.3,2.3,83,0.00,OVC,,0.16,0.0,WeatherDisplay:10.37,2013-03-23 23:44:00,
2013-03-23 18:50:00,55.0,50.0,29.69,ENE,68,1.2,1.5,83,0.00,OVC,,0.16,0.0,WeatherDisplay:10.37,2013-03-23 23:50:00,
2013-03-23 18:55:00,54.9,49.8,29.69,ESE,112,4.6,4.6,83,0.00,OVC,,0.16,0.0,WeatherDisplay:10.37,2013-03-23 23:55:00,
2013-03-23 19:00:00,54.9,49.8,29.69,ENE,68,3.6,3.6,83,0.00,OVC,,0.16,0.0,WeatherDisplay:10.37,2013-03-24 00:00:00,
2013-03-23 19:05:00,54.7,49.6,29.69,NW,315,4.6,4.6,83,0.00,OVC,,0.16,0.0,WeatherDisplay:10.37,2013-03-24 00:05:00,
2013-03-23 19:11:00,54.5,49.4,29.69,WSW,248,4.6,4.6,83,0.00,OVC,,0.16,0.0,WeatherDisplay:10.37,2013-03-24 00:11:00,
2013-03-23 19:16:00,54.3,49.3,29.69,ESE,112,2.3,2.3,83,0.00,OVC,,0.16,0.0,WeatherDisplay:10.37,2013-03-24 00:16:00,
2013-03-23 19:21:00,54.3,49.3,29.69,North,0,1.2,1.3,83,0.00,OVC,,0.16,0.0,WeatherDisplay:10.37,2013-03-24 00:21:00,
2013-03-23 19:26:00,54.3,48.9,29.69,ENE,68,1.2,1.2,82,0.00,OVC,,0.16,0.0,WeatherDisplay:10.37,2013-03-24 00:26:00,
2013-03-23 19:31:00,54.3,49.3,29.70,NNW,338,2.3,2.3,83,0.00,OVC,,0.16,0.0,WeatherDisplay:10.37,2013-03-24 00:31:00,
2013-03-23 19:36:00,54.5,49.4,29.70,ENE,68,0.0,0.9,83,0.00,OVC,,0.16,0.0,WeatherDisplay:10.37,2013-03-24 00:36:00,
2013-03-23 19:41:00,54.3,49.3,29.70,East,90,3.5,3.5,83,0.00,OVC,,0.16,0.0,WeatherDisplay:10.37,2013-03-24 00:41:00,
2013-03-23 19:47:00,54.1,49.1,29.70,NW,315,2.3,2.3,83,0.00,OVC,,0.16,0.0,WeatherDisplay:10.37,2013-03-24 00:47:00,
2013-03-23 19:52:00,54.0,48.9,29.70,North,0,1.5,1.5,83,0.00,OVC,,0.16,0.0,WeatherDisplay:10.37,2013-03-24 00:52:00,
2013-03-23 19:57:00,54.0,48.9,29.70,SSE,158,2.3,2.3,83,0.00,OVC,,0.16,0.0,WeatherDisplay:10.37,2013-03-24 00:57:00,
2013-03-23 20:02:00,54.1,49.1,29.70,NNW,338,2.3,2.3,83,0.00,CLR,,0.16,0.0,WeatherDisplay:10.37,2013-03-24 01:02:00,
2013-03-23 20:08:00,54.0,48.9,29.70,ESE,112,3.5,3.5,83,0.00,CLR,,0.16,0.0,WeatherDisplay:10.37,2013-03-24 01:08:00,
2013-03-23 20:13:00,54.1,49.1,29.68,NE,45,0.0,0.9,83,0.00,CLR,,0.16,0.0,WeatherDisplay:10.37,2013-03-24 01:13:00,
2013-03-23 20:18:00,53.8,48.7,29.68,ESE,112,1.2,1.2,83,0.00,CLR,,0.16,0.0,WeatherDisplay:10.37,2013-03-24 01:18:00,
2013-03-23 20:23:00,53.8,48.7,29.68,ENE,68,4.6,4.6,83,0.00,CLR,,0.16,0.0,WeatherDisplay:10.37,2013-03-24 01:23:00,
2013-03-23 20:28:00,53.8,48.7,29.69,East,90,2.3,2.3,83,0.00,CLR,,0.16,0.0,WeatherDisplay:10.37,2013-03-24 01:28:00,
2013-03-23 20:33:00,53.8,48.7,29.69,ENE,68,3.5,3.5,83,0.00,CLR,,0.16,0.0,WeatherDisplay:10.37,2013-03-24 01:33:00,
2013-03-23 20:38:00,53.8,48.7,29.69,ESE,112,4.6,4.6,83,0.00,CLR,,0.16,0.0,WeatherDisplay:10.37,2013-03-24 01:38:00,
2013-03-23 20:43:00,53.8,48.7,29.69,ESE,112,2.3,2.3,83,0.00,CLR,,0.16,0.0,WeatherDisplay:10.37,2013-03-24 01:43:00,
2013-03-23 20:49:00,53.8,48.7,29.68,NNE,22,2.5,2.5,83,0.00,CLR,,0.16,0.0,WeatherDisplay:10.37,2013-03-24 01:49:00,
2013-03-23 20:54:00,53.8,48.7,29.68,ESE,112,3.5,3.5,83,0.00,CLR,,0.16,0.0,WeatherDisplay:10.37,2013-03-24 01:54:00,
2013-03-23 20:59:00,53.8,48.7,29.68,ESE,112,2.6,2.6,83,0.00,CLR,,0.16,0.0,WeatherDisplay:10.37,2013-03-24 01:59:00,
2013-03-23 21:04:00,53.8,48.7,29.68,ESE,112,3.0,3.0,83,0.00,CLR,,0.16,0.0,WeatherDisplay:10.37,2013-03-24 02:04:00,
2013-03-23 21:09:00,53.8,48.7,29.69,ESE,112,1.4,1.5,83,0.00,CLR,,0.16,0.0,WeatherDisplay:10.37,2013-03-24 02:09:00,
2013-03-23 21:15:00,53.8,48.7,29.69,ESE,112,3.5,3.5,83,0.00,CLR,,0.16,0.0,WeatherDisplay:10.37,2013-03-24 02:15:00,
2013-03-23 21:20:00,54.0,48.9,29.69,East,90,2.3,2.3,83,0.00,CLR,,0.16,0.0,WeatherDisplay:10.37,2013-03-24 02:20:00,
2013-03-23 21:25:00,53.8,48.7,29.69,NE,45,0.0,1.3,83,0.00,CLR,,0.16,0.0,WeatherDisplay:10.37,2013-03-24 02:25:00,
2013-03-23 21:30:00,53.8,48.7,29.67,East,90,2.3,2.3,83,0.00,CLR,,0.16,0.0,WeatherDisplay:10.37,2013-03-24 02:30:00,
2013-03-23 21:35:00,53.8,49.1,29.67,East,90,2.3,2.3,84,0.00,CLR,,0.16,0.0,WeatherDisplay:10.37,2013-03-24 02:35:00,
2013-03-23 21:40:00,53.8,49.1,29.67,East,90,2.3,2.3,84,0.00,CLR,,0.16,0.0,WeatherDisplay:10.37,2013-03-24 02:40:00,
2013-03-23 21:45:00,53.8,48.7,29.67,NE,45,2.3,2.3,83,0.00,CLR,,0.16,0.0,WeatherDisplay:10.37,2013-03-24 02:45:00,
2013-03-23 21:51:00,53.8,49.1,29.69,ENE,68,2.3,2.3,84,0.00,CLR,,0.16,0.0,WeatherDisplay:10.37,2013-03-24 02:51:00,
2013-03-23 21:56:00,54.0,49.2,29.69,NW,315,0.0,0.8,84,0.00,CLR,,0.16,0.0,WeatherDisplay:10.37,2013-03-24 02:56:00,
2013-03-23 22:02:00,54.0,49.2,29.69,NE,45,0.0,0.3,84,0.00,CLR,,0.16,10.0,WeatherDisplay:10.37,2013-03-24 03:02:00,
2013-03-23 22:07:00,54.0,49.2,29.69,NNE,22,1.2,1.2,84,0.00,CLR,,0.16,0.0,WeatherDisplay:10.37,2013-03-24 03:07:00,
2013-03-23 22:12:00,54.1,49.4,29.70,NE,45,1.7,1.7,84,0.00,CLR,,0.16,0.0,WeatherDisplay:10.37,2013-03-24 03:12:00,
2013-03-23 22:18:00,54.1,49.4,29.70,WSW,248,0.0,0.7,84,0.00,CLR,,0.16,0.0,WeatherDisplay:10.37,2013-03-24 03:18:00,
2013-03-23 22:23:00,54.1,49.4,29.70,NW,315,2.3,2.3,84,0.00,CLR,,0.16,0.0,WeatherDisplay:10.37,2013-03-24 03:23:00,
2013-03-23 22:28:00,54.1,49.4,29.70,East,90,0.0,1.0,84,0.00,CLR,,0.16,0.0,WeatherDisplay:10.37,2013-03-24 03:28:00,
2013-03-23 22:33:00,54.1,49.4,29.70,SE,135,3.5,3.5,84,0.00,CLR,,0.16,0.0,WeatherDisplay:10.37,2013-03-24 03:33:00,
2013-03-23 22:38:00,54.1,49.4,29.70,NW,315,2.4,2.4,84,0.00,CLR,,0.16,0.0,WeatherDisplay:10.37,2013-03-24 03:38:00,
2013-03-23 22:44:00,54.1,49.4,29.70,WSW,248,0.0,0.9,84,0.00,CLR,,0.16,10.0,WeatherDisplay:10.37,2013-03-24 03:44:00,
2013-03-23 22:49:00,54.1,49.4,29.76,NW,315,4.6,4.6,84,0.00,CLR,,0.16,10.0,WeatherDisplay:10.37,2013-03-24 03:49:00,
2013-03-23 22:54:00,53.8,49.1,29.76,NW,315,11.5,11.5,84,0.00,CLR,,0.16,10.0,WeatherDisplay:10.37,2013-03-24 03:54:00,
2013-03-23 23:00:00,53.6,48.9,29.76,WNW,292,6.9,6.9,84,0.00,CLR,,0.16,10.0,WeatherDisplay:10.37,2013-03-24 04:00:00,
2013-03-23 23:02:00,53.8,49.1,29.76,NW,315,5.8,5.8,84,0.00,CLR,,0.16,0.0,WeatherDisplay:10.37,2013-03-24 04:02:00,
2013-03-23 23:07:00,53.4,48.7,29.76,NW,315,12.7,12.7,84,0.00,CLR,,0.16,10.0,WeatherDisplay:10.37,2013-03-24 04:07:00,
2013-03-23 23:12:00,53.4,48.7,29.84,NNW,338,6.9,6.9,84,0.00,CLR,,0.16,0.0,WeatherDisplay:10.37,2013-03-24 04:12:00,
2013-03-23 23:17:00,52.9,48.5,29.84,NW,315,11.5,11.5,85,0.00,CLR,,0.16,10.0,WeatherDisplay:10.37,2013-03-24 04:17:00,
2013-03-23 23:22:00,52.7,48.6,29.84,NW,315,10.4,10.4,86,0.00,CLR,,0.16,0.0,WeatherDisplay:10.37,2013-03-24 04:22:00,
2013-03-23 23:27:00,52.3,48.3,29.84,NNW,338,9.2,9.2,86,0.00,CLR,,0.16,0.0,WeatherDisplay:10.37,2013-03-24 04:27:00,
2013-03-23 23:33:00,52.0,47.9,29.80,SE,135,8.1,8.1,86,0.00,CLR,,0.16,0.0,WeatherDisplay:10.37,2013-03-24 04:33:00,
2013-03-23 23:38:00,52.0,48.2,29.80,NW,315,7.5,7.5,87,0.00,CLR,,0.16,0.0,WeatherDisplay:10.37,2013-03-24 04:38:00,
2013-03-23 23:43:00,52.0,48.2,29.80,NW,315,5.8,5.8,87,0.00,CLR,,0.16,0.0,WeatherDisplay:10.37,2013-03-24 04:43:00,
2013-03-23 23:48:00,51.8,48.4,29.80,West,270,5.8,5.8,88,0.00,CLR,,0.16,0.0,WeatherDisplay:10.37,2013-03-24 04:48:00,
2013-03-23 23:53:00,51.6,48.2,29.88,NNW,338,3.5,3.9,88,0.00,CLR,,0.16,0.0,WeatherDisplay:10.37,2013-03-24 04:53:00,
2013-03-23 23:58:00,51.6,48.2,29.88,WNW,292,4.6,4.6,88,0.00,CLR,,0.16,0.0,WeatherDisplay:10.37,2013-03-24 04:58:00,